Time,TemperatureF,DewpointF,PressureIn,WindDirection,WindDirectionDegrees,WindSpeedMPH,WindSpeedGustMPH,Humidity,HourlyPrecipIn,Conditions,Clouds,dailyrainin,SolarRadiationWatts/m^2,SoftwareType,DateUTC
2014-09-30 00:03:00,57.4,54.7,29.95,NW,305,7.0,7.0,91,0.00,,,0.00,0,HR-IXP-WINDi_r2_v1.2,2014-09-30 05:03:00,
2014-09-30 00:08:00,57.3,54.3,29.96,NW,306,0.0,7.0,90,0.00,,,0.00,0,HR-IXP-WINDi_r2_v1.2,2014-09-30 05:08:00,
2014-09-30 00:13:00,57.2,54.2,29.96,WNW,288,0.0,7.0,90,0.00,,,0.00,0,HR-IXP-WINDi_r2_v1.2,2014-09-30 05:13:00,
2014-09-30 00:14:00,57.2,54.2,29.96,ESE,122,1.0,6.0,90,0.00,,,0.00,0,HR-IXP-WINDi_r2_v1.2,2014-09-30 05:14:00,
2014-09-30 00:19:00,57.1,53.8,29.95,NW,320,0.0,5.0,89,0.00,,,0.00,0,HR-IXP-WINDi_r2_v1.2,2014-09-30 05:19:00,
2014-09-30 00:24:00,56.9,53.6,29.95,NNW,338,0.0,6.0,89,0.00,,,0.00,0,HR-IXP-WINDi_r2_v1.2,2014-09-30 05:24:00,
2014-09-30 00:29:00,56.7,53.4,29.95,NW,309,5.0,6.0,89,0.00,,,0.00,0,HR-IXP-WINDi_r2_v1.2,2014-09-30 05:29:00,
2014-09-30 00:34:00,56.5,53.5,29.96,NW,310,0.0,8.0,90,0.00,,,0.00,0,HR-IXP-WINDi_r2_v1.2,2014-09-30 05:34:00,
2014-09-30 00:39:00,56.2,53.2,29.95,NW,321,0.0,8.0,90,0.00,,,0.00,0,HR-IXP-WINDi_r2_v1.2,2014-09-30 05:39:00,
2014-09-30 00:45:00,56.1,53.4,29.96,WNW,300,0.0,5.0,91,0.00,,,0.00,0,HR-IXP-WINDi_r2_v1.2,2014-09-30 05:45:00,
2014-09-30 00:50:00,55.9,53.2,29.96,NE,35,0.0,4.0,91,0.00,,,0.00,0,HR-IXP-WINDi_r2_v1.2,2014-09-30 05:50:00,
2014-09-30 00:55:00,55.8,53.4,29.96,WNW,302,0.0,5.0,92,0.00,,,0.00,0,HR-IXP-WINDi_r2_v1.2,2014-09-30 05:55:00,
2014-09-30 01:00:00,55.7,53.3,29.96,WNW,296,1.0,5.0,92,0.00,,,0.00,0,HR-IXP-WINDi_r2_v1.2,2014-09-30 06:00:00,
2014-09-30 01:05:00,55.6,53.2,29.96,North,355,0.0,2.0,92,0.00,,,0.00,0,HR-IXP-WINDi_r2_v1.2,2014-09-30 06:05:00,
2014-09-30 01:10:00,55.4,53.0,29.96,WNW,297,0.0,4.0,92,0.00,,,0.00,0,HR-IXP-WINDi_r2_v1.2,2014-09-30 06:10:00,
2014-09-30 01:16:00,55.2,52.8,29.95,WNW,296,0.0,4.0,92,0.00,,,0.00,0,HR-IXP-WINDi_r2_v1.2,2014-09-30 06:16:00,
2014-09-30 01:21:00,55.1,52.8,29.95,NW,323,1.0,4.0,92,0.00,,,0.00,0,HR-IXP-WINDi_r2_v1.2,2014-09-30 06:21:00,
2014-09-30 01:26:00,55.0,52.7,29.95,West,276,0.0,6.0,92,0.00,,,0.00,0,HR-IXP-WINDi_r2_v1.2,2014-09-30 06:26:00,
2014-09-30 01:31:00,54.9,52.6,29.96,NNW,336,0.0,6.0,92,0.00,,,0.00,0,HR-IXP-WINDi_r2_v1.2,2014-09-30 06:31:00,
2014-09-30 01:36:00,54.9,52.6,29.96,NW,308,0.0,5.0,92,0.00,,,0.00,0,HR-IXP-WINDi_r2_v1.2,2014-09-30 06:36:00,
2014-09-30 01:41:00,54.7,52.6,29.96,NNE,29,0.0,5.0,93,0.00,,,0.00,0,HR-IXP-WINDi_r2_v1.2,2014-09-30 06:41:00,
2014-09-30 01:46:00,54.7,52.6,29.96,NW,312,0.0,5.0,93,0.00,,,0.00,0,HR-IXP-WINDi_r2_v1.2,2014-09-30 06:46:00,
2014-09-30 01:52:00,54.6,52.5,29.96,NW,307,0.0,5.0,93,0.00,,,0.00,0,HR-IXP-WINDi_r2_v1.2,2014-09-30 06:52:00,
2014-09-30 01:57:00,54.5,52.5,29.96,NNW,331,0.0,5.0,93,0.00,,,0.00,0,HR-IXP-WINDi_r2_v1.2,2014-09-30 06:57:00,
2014-09-30 02:02:00,54.4,52.4,29.97,NW,312,3.0,5.0,93,0.00,,,0.00,0,HR-IXP-WINDi_r2_v1.2,2014-09-30 07:02:00,
2014-09-30 02:07:00,54.3,52.3,29.97,WSW,257,0.0,5.0,93,0.00,,,0.00,0,HR-IXP-WINDi_r2_v1.2,2014-09-30 07:07:00,
2014-09-30 02:12:00,54.2,52.2,29.97,NNE,17,0.0,4.0,93,0.00,,,0.00,0,HR-IXP-WINDi_r2_v1.2,2014-09-30 07:12:00,
2014-09-30 02:17:00,54.2,52.2,29.97,NW,313,0.0,3.0,93,0.00,,,0.00,0,HR-IXP-WINDi_r2_v1.2,2014-09-30 07:17:00,
2014-09-30 02:22:00,54.2,52.2,29.97,WNW,296,0.0,7.0,93,0.00,,,0.00,0,HR-IXP-WINDi_r2_v1.2,2014-09-30 07:22:00,
2014-09-30 02:28:00,54.1,52.1,29.97,West,276,0.0,7.0,93,0.00,,,0.00,0,HR-IXP-WINDi_r2_v1.2,2014-09-30 07:28:00,
2014-09-30 02:33:00,54.0,52.0,29.97,West,273,4.0,4.0,93,0.00,,,0.00,0,HR-IXP-WINDi_r2_v1.2,2014-09-30 07:33:00,
2014-09-30 02:38:00,53.9,51.9,29.96,NW,315,0.0,5.0,93,0.00,,,0.00,0,HR-IXP-WINDi_r2_v1.2,2014-09-30 07:38:00,
2014-09-30 02:43:00,53.8,51.8,29.96,NW,325,0.0,5.0,93,0.00,,,0.00,0,HR-IXP-WINDi_r2_v1.2,2014-09-30 07:43:00,
2014-09-30 02:48:00,53.8,51.8,29.97,NW,311,0.0,4.0,93,0.00,,,0.00,0,HR-IXP-WINDi_r2_v1.2,2014-09-30 07:48:00,
2014-09-30 02:54:00,53.8,51.8,29.96,WNW,285,0.0,4.0,93,0.00,,,0.00,0,HR-IXP-WINDi_r2_v1.2,2014-09-30 07:54:00,
2014-09-30 02:59:00,53.9,51.6,29.96,NW,304,0.0,3.0,92,0.00,,,0.00,0,HR-IXP-WINDi_r2_v1.2,2014-09-30 07:59:00,
2014-09-30 03:04:00,53.9,51.6,29.96,NW,315,0.0,4.0,92,0.00,,,0.00,0,HR-IXP-WINDi_r2_v1.2,2014-09-30 08:04:00,
2014-09-30 03:09:00,53.9,51.6,29.96,East,82,0.0,4.0,92,0.00,,,0.00,0,HR-IXP-WINDi_r2_v1.2,2014-09-30 08:09:00,
2014-09-30 03:14:00,54.0,51.4,29.96,NW,309,0.0,5.0,91,0.00,,,0.00,0,HR-IXP-WINDi_r2_v1.2,2014-09-30 08:14:00,
2014-09-30 03:19:00,53.9,51.3,29.97,North,355,0.0,5.0,91,0.00,,,0.00,0,HR-IXP-WINDi_r2_v1.2,2014-09-30 08:19:00,
2014-09-30 03:24:00,54.0,51.4,29.97,NW,325,0.0,4.0,91,0.00,,,0.00,0,HR-IXP-WINDi_r2_v1.2,2014-09-30 08:24:00,
2014-09-30 03:30:00,53.9,51.0,29.97,NW,318,2.0,4.0,90,0.00,,,0.00,0,HR-IXP-WINDi_r2_v1.2,2014-09-30 08:30:00,
2014-09-30 03:35:00,53.7,50.8,29.97,NW,319,3.0,4.0,90,0.00,,,0.00,0,HR-IXP-WINDi_r2_v1.2,2014-09-30 08:35:00,
2014-09-30 03:40:00,53.6,50.7,29.97,NW,326,0.0,4.0,90,0.00,,,0.00,0,HR-IXP-WINDi_r2_v1.2,2014-09-30 08:40:00,
2014-09-30 03:45:00,53.6,50.7,29.97,ENE,57,0.0,7.0,90,0.00,,,0.00,0,HR-IXP-WINDi_r2_v1.2,2014-09-30 08:45:00,
2014-09-30 03:50:00,53.6,50.7,29.97,NW,313,0.0,7.0,90,0.00,,,0.00,0,HR-IXP-WINDi_r2_v1.2,2014-09-30 08:50:00,
2014-09-30 03:55:00,53.6,50.7,29.97,West,273,0.0,2.0,90,0.00,,,0.00,0,HR-IXP-WINDi_r2_v1.2,2014-09-30 08:55:00,
2014-09-30 04:00:00,53.6,50.7,29.97,NW,320,0.0,4.0,90,0.00,,,0.00,0,HR-IXP-WINDi_r2_v1.2,2014-09-30 09:00:00,
2014-09-30 04:05:00,53.5,50.6,29.98,SSW,206,3.0,7.0,90,0.00,,,0.00,0,HR-IXP-WINDi_r2_v1.2,2014-09-30 09:05:00,
2014-09-30 04:10:00,53.5,50.6,29.98,WNW,299,0.0,7.0,90,0.00,,,0.00,0,HR-IXP-WINDi_r2_v1.2,2014-09-30 09:10:00,
2014-09-30 04:16:00,53.5,50.3,29.98,WNW,297,0.0,6.0,89,0.00,,,0.00,0,HR-IXP-WINDi_r2_v1.2,2014-09-30 09:16:00,
2014-09-30 04:21:00,53.4,50.2,29.98,West,274,0.0,5.0,89,0.00,,,0.00,0,HR-IXP-WINDi_r2_v1.2,2014-09-30 09:21:00,
2014-09-30 04:26:00,53.3,50.1,29.98,East,99,0.0,2.0,89,0.00,,,0.00,0,HR-IXP-WINDi_r2_v1.2,2014-09-30 09:26:00,
2014-09-30 04:31:00,53.3,50.1,29.98,NW,307,0.0,4.0,89,0.00,,,0.00,0,HR-IXP-WINDi_r2_v1.2,2014-09-30 09:31:00,
2014-09-30 04:36:00,53.2,50.6,29.98,North,5,0.0,4.0,91,0.00,,,0.00,0,HR-IXP-WINDi_r2_v1.2,2014-09-30 09:36:00,
2014-09-30 04:41:00,53.0,50.4,29.98,NW,313,0.0,3.0,91,0.00,,,0.00,0,HR-IXP-WINDi_r2_v1.2,2014-09-30 09:41:00,
2014-09-30 04:46:00,53.0,50.4,29.98,NNW,341,0.0,3.0,91,0.00,,,0.00,0,HR-IXP-WINDi_r2_v1.2,2014-09-30 09:46:00,
2014-09-30 04:52:00,52.9,50.3,29.97,NW,304,0.0,6.0,91,0.00,,,0.00,0,HR-IXP-WINDi_r2_v1.2,2014-09-30 09:52:00,
2014-09-30 04:57:00,52.8,50.2,29.98,NW,319,0.0,6.0,91,0.00,,,0.00,0,HR-IXP-WINDi_r2_v1.2,2014-09-30 09:57:00,
2014-09-30 05:02:00,52.8,50.2,29.98,NNW,331,0.0,6.0,91,0.00,,,0.00,0,HR-IXP-WINDi_r2_v1.2,2014-09-30 10:02:00,
2014-09-30 05:07:00,52.7,50.4,29.98,NNW,331,0.0,6.0,92,0.00,,,0.00,0,HR-IXP-WINDi_r2_v1.2,2014-09-30 10:07:00,
2014-09-30 05:13:00,52.6,50.6,29.98,NNW,331,0.0,2.0,93,0.00,,,0.00,0,HR-IXP-WINDi_r2_v1.2,2014-09-30 10:13:00,
2014-09-30 05:18:00,52.3,50.0,29.98,NNE,32,0.0,6.0,92,0.00,,,0.00,0,HR-IXP-WINDi_r2_v1.2,2014-09-30 10:18:00,
2014-09-30 05:23:00,52.2,49.9,29.97,NNE,32,0.0,6.0,92,0.00,,,0.00,0,HR-IXP-WINDi_r2_v1.2,2014-09-30 10:23:00,
2014-09-30 05:28:00,52.2,49.9,29.98,NNE,15,0.0,2.0,92,0.00,,,0.00,0,HR-IXP-WINDi_r2_v1.2,2014-09-30 10:28:00,
2014-09-30 05:33:00,52.2,49.9,29.98,SW,236,0.0,2.0,92,0.00,,,0.00,0,HR-IXP-WINDi_r2_v1.2,2014-09-30 10:33:00,
2014-09-30 05:38:00,52.2,50.2,29.98,West,273,0.0,2.0,93,0.00,,,0.00,0,HR-IXP-WINDi_r2_v1.2,2014-09-30 10:38:00,
2014-09-30 05:44:00,52.2,50.2,29.98,ENE,65,0.0,2.0,93,0.00,,,0.00,0,HR-IXP-WINDi_r2_v1.2,2014-09-30 10:44:00,
2014-09-30 05:49:00,52.2,50.5,29.98,NNE,16,0.0,2.0,94,0.00,,,0.00,0,HR-IXP-WINDi_r2_v1.2,2014-09-30 10:49:00,
2014-09-30 05:54:00,52.1,50.4,29.98,NNW,340,0.0,2.0,94,0.00,,,0.00,0,HR-IXP-WINDi_r2_v1.2,2014-09-30 10:54:00,
2014-09-30 05:59:00,51.9,50.2,29.98,WNW,290,0.0,3.0,94,0.00,,,0.00,0,HR-IXP-WINDi_r2_v1.2,2014-09-30 10:59:00,
2014-09-30 06:05:00,51.8,50.1,29.99,WNW,293,0.0,3.0,94,0.00,,,0.00,0,HR-IXP-WINDi_r2_v1.2,2014-09-30 11:05:00,
2014-09-30 06:10:00,51.7,50.0,29.98,WNW,293,0.0,2.0,94,0.00,,,0.00,0,HR-IXP-WINDi_r2_v1.2,2014-09-30 11:10:00,
2014-09-30 06:15:00,51.7,50.0,29.98,WNW,300,0.0,3.0,94,0.00,,,0.00,0,HR-IXP-WINDi_r2_v1.2,2014-09-30 11:15:00,
2014-09-30 06:20:00,51.7,50.0,29.98,WNW,293,0.0,3.0,94,0.00,,,0.00,0,HR-IXP-WINDi_r2_v1.2,2014-09-30 11:20:00,
2014-09-30 06:25:00,51.6,49.9,29.98,NE,55,0.0,5.0,94,0.00,,,0.00,0,HR-IXP-WINDi_r2_v1.2,2014-09-30 11:25:00,
2014-09-30 06:30:00,51.5,49.8,29.98,West,279,0.0,5.0,94,0.00,,,0.00,0,HR-IXP-WINDi_r2_v1.2,2014-09-30 11:30:00,
2014-09-30 06:35:00,51.5,49.8,29.98,West,279,0.0,2.0,94,0.00,,,0.00,0,HR-IXP-WINDi_r2_v1.2,2014-09-30 11:35:00,
2014-09-30 06:41:00,51.5,49.8,29.98,West,279,1.0,1.0,94,0.00,,,0.00,0,HR-IXP-WINDi_r2_v1.2,2014-09-30 11:41:00,